This is the latest recevied weather packets stored in our database for station/object IW5CTE-13. If no packets are shown the sender has not sent any weather packets the latest 10 day(s).
| Time | Temp. | Humidity | Pressure | Rain* | Wind** | Luminosity | Snow |
|---|---|---|---|---|---|---|---|
| 1777318050 | 17.78° C | 71% | 1018.6 hPa | - | - | - | - |
| 1777317449 | 17.78° C | 72% | 1018.4 hPa | - | - | - | - |
| 1777316850 | 17.78° C | 73% | 1018.3 hPa | - | - | - | - |
| 1777316251 | 18.33° C | 74% | 1018.3 hPa | - | - | - | - |
| 1777315650 | 18.33° C | 74% | 1018.2 hPa | - | - | - | - |
| 1777315051 | 18.89° C | 72% | 1018 hPa | - | - | - | - |
| 1777314450 | 19.44° C | 71% | 1017.9 hPa | - | - | - | - |
| 1777313850 | 20° C | 68% | 1017.9 hPa | - | - | - | - |
| 1777313250 | 20° C | 66% | 1017.9 hPa | - | - | - | - |
| 1777312649 | 20° C | 65% | 1017.8 hPa | - | - | - | - |
| 1777312051 | 20.56° C | 61% | 1017.9 hPa | - | - | - | - |
| 1777311449 | 20.56° C | 58% | 1017.8 hPa | - | - | - | - |
| 1777310850 | 20.56° C | 57% | 1017.8 hPa | - | - | - | - |
| 1777310249 | 20.56° C | 57% | 1017.8 hPa | - | - | - | - |
| 1777309650 | 21.11° C | 57% | 1017.7 hPa | - | - | - | - |
| 1777308362 | 21.11° C | 57% | 1017.8 hPa | - | - | - | - |
| 1777307762 | 21.11° C | 55% | 1017.8 hPa | - | - | - | - |
| 1777307162 | 21.67° C | 56% | 1017.9 hPa | - | - | - | - |
| 1777306562 | 21.67° C | 55% | 1017.8 hPa | - | - | - | - |
| 1777305963 | 21.67° C | 56% | 1017.8 hPa | - | - | - | - |
| 1777305363 | 21.67° C | 54% | 1017.9 hPa | - | - | - | - |
| 1777304763 | 21.67° C | 53% | 1018 hPa | - | - | - | - |
| 1777304162 | 21.67° C | 52% | 1018 hPa | - | - | - | - |
| 1777303563 | 22.22° C | 51% | 1018 hPa | - | - | - | - |
| 1777302963 | 22.22° C | 51% | 1018 hPa | - | - | - | - |
* Rain since midnight (hover to see other rain measurements)
** Current wind speed in m/s (hover to see current wind gust speed)